Fairbanks, AK

5:12 AM AKDT on July 26, 2016 (GMT -0800)
Fairbanks International

Weather History for PAFA - April, 2013

Change the Weather History Date:

Sunday, April 7, 2013

  Actual Average Record
Temperature  
Mean Temperature 1 °F 26 °F  
Max Temperature 11 °F 39 °F 58 °F (1997)
Min Temperature -10 °F 14 °F -24 °F (1986)
Degree Days  
Heating Degree Days 64 39  
Month to date heating degree days 341 288  
Since 1 July heating degree days 13098 12338  
Cooling Degree Days 0 0  
Month to date cooling degree days 0 0  
Year to date cooling degree days 0 0  
Moisture  
Dew Point -1 °F    
Average Humidity 72    
Maximum Humidity 86    
Minimum Humidity 46    
Precipitation  
Precipitation 0.04 in 0.01 in 0.32 in (1948)
Month to date precipitation 0.04 0.05  
Year to date precipitation 1.57 1.30  
Snow  
Snow 0.70 in 0.10 in 4.60 in (1962)
Month to date snowfall 0.7 0.9  
Since 1 July snowfall 57.4 62.1  
Snow Depth 21.00 in    
Sea Level Pressure  
Sea Level Pressure 29.78 in    
Wind  
Wind Speed 5 mph (SSW)    
Max Wind Speed 9 mph    
Max Gust Speed -    
Visibility 4 miles    
Events Snow    
T = Trace of Precipitation, MM = Missing Value Source: NWS Daily Summary

Daily Weather History Graph

Daily Weather History Graph

Search for Another Location

Airport or City:

Trip Planner

Search our weather history database for the weather conditions in past years. The results will help you decide how hot, cold, wet, or windy it might be!

Date:

Astronomy

Apr. 07, 2013 Rise Set
Actual Time 6:44 AM AKDT 9:04 PM AKDT
Civil Twilight 5:51 AM AKDT 9:58 PM AKDT
Nautical Twilight 4:38 AM AKDT 11:12 PM AKDT
Astronomical Twilight 2:24 AM AKDT 1:20 AM AKDT
Moon 5:59 AM AKDT (4/7) 6:05 PM AKDT (4/7)
Length of Visible Light 16h 07m
Length of Day
14h 20m
Waning Crescent, 7% of the Moon is Illuminated
Apr 7
Waning Crescent
Apr 10
New
Apr 18
First Quarter
Apr 25
Full
May 2
Last Quarter

Hourly Weather History & Observations

Time (AKDT) Temp. Windchill Dew Point Humidity Pressure Visibility Wind Dir Wind Speed Gust Speed Precip Events Conditions
12:53 AM 10.0 °F 0.4 °F -7.1 °F 46% 29.67 in 10.0 mi NNW 5.8 mph - N/A   Overcast
1:53 AM 7.0 °F 0.1 °F -2.9 °F 64% 29.67 in 10.0 mi SSW 3.5 mph - N/A   Overcast
2:53 AM 5.0 °F -6.9 °F -2.9 °F 70% 29.69 in 10.0 mi SSW 6.9 mph - N/A   Overcast
3:53 AM 5.0 °F -5.6 °F -0.9 °F 76% 29.69 in 9.0 mi SW 5.8 mph - N/A   Overcast
4:53 AM 5.0 °F -5.6 °F -0.9 °F 76% 29.69 in 4.0 mi SW 5.8 mph - N/A Snow Light Snow
5:03 AM 5.0 °F -5.6 °F -0.9 °F 76% 29.66 in 2.0 mi SSW 5.8 mph - N/A Snow Light Snow
5:45 AM 3.9 °F -8.2 °F -0.9 °F 80% 29.67 in 3.0 mi SSW 6.9 mph - N/A Snow Light Snow
5:53 AM 3.9 °F -10.4 °F -0.9 °F 80% 29.71 in 4.0 mi SSW 9.2 mph - N/A Snow Light Snow
6:53 AM 3.9 °F -3.4 °F -2.0 °F 76% 29.72 in 4.0 mi SSW 3.5 mph - N/A Snow Light Snow
7:46 AM 3.9 °F -3.4 °F -0.9 °F 80% 29.69 in 2.0 mi SSW 3.5 mph - N/A Snow Light Snow
7:53 AM 3.9 °F -5.3 °F -2.0 °F 76% 29.73 in 1.5 mi South 4.6 mph - N/A Snow Light Snow
8:08 AM 3.9 °F -5.3 °F -2.0 °F 76% 29.70 in 1.5 mi South 4.6 mph - N/A Snow Light Snow
8:53 AM 3.9 °F -6.9 °F -2.0 °F 76% 29.74 in 1.5 mi South 5.8 mph - N/A Snow Light Snow
9:53 AM 3.9 °F -3.4 °F -0.9 °F 80% 29.76 in 1.2 mi SSW 3.5 mph - N/A Snow Light Snow
10:53 AM 5.0 °F - -0.9 °F 76% 29.77 in 1.5 mi Calm Calm - N/A Snow Light Snow
11:53 AM 6.1 °F - 1.0 °F 80% 29.79 in 1.5 mi Calm Calm - N/A Snow Light Snow
12:53 PM 7.0 °F 0.1 °F -0.0 °F 73% 29.81 in 1.5 mi Variable 3.5 mph - N/A Snow Light Snow
1:51 PM 8.6 °F 0.1 °F 1.4 °F 73% 29.76 in 2.0 mi Variable 4.6 mph - N/A Snow Light Snow
1:53 PM 8.1 °F -2.0 °F 1.0 °F 73% 29.80 in 2.0 mi SSW 5.8 mph - N/A Snow Light Snow
2:18 PM 9.0 °F -3.2 °F -0.0 °F 67% 29.76 in 2.0 mi WSW 8.1 mph - N/A Snow Light Snow
2:53 PM 9.0 °F -3.2 °F 1.0 °F 70% 29.81 in 2.5 mi SW 8.1 mph - N/A Snow Light Snow
3:21 PM 9.0 °F -2.2 °F -0.0 °F 67% 29.77 in 3.0 mi Variable 6.9 mph - N/A Snow Light Snow
3:29 PM 9.0 °F -0.9 °F 1.0 °F 70% 29.77 in 2.0 mi SW 5.8 mph - N/A Snow Light Snow
3:40 PM 9.0 °F 0.6 °F 1.0 °F 70% 29.77 in 2.0 mi SW 4.6 mph - N/A Snow Light Snow
3:46 PM 9.0 °F -2.2 °F 1.0 °F 70% 29.77 in 2.0 mi WSW 6.9 mph - N/A Snow Light Snow
3:53 PM 9.0 °F -0.9 °F 1.0 °F 70% 29.82 in 2.0 mi SW 5.8 mph - N/A Snow Light Snow
4:48 PM 8.6 °F 0.1 °F 1.4 °F 73% 29.78 in 4.0 mi Variable 4.6 mph - N/A Snow Light Snow
4:53 PM 10.0 °F 0.4 °F 1.9 °F 70% 29.83 in 3.0 mi WSW 5.8 mph - N/A Snow Light Snow
5:16 PM 9.0 °F -0.9 °F 3.0 °F 77% 29.79 in 2.0 mi SSW 5.8 mph - N/A Snow Light Snow
5:33 PM 9.0 °F -0.9 °F 1.9 °F 73% 29.80 in 1.5 mi SSW 5.8 mph - N/A Snow Light Snow
5:53 PM 9.0 °F 0.6 °F 1.9 °F 73% 29.84 in 2.0 mi South 4.6 mph - N/A Snow Light Snow
6:38 PM 9.0 °F - 1.9 °F 73% 29.80 in 6.0 mi Calm Calm - N/A Snow Light Snow
6:53 PM 10.0 °F 3.6 °F 1.0 °F 67% 29.86 in 10.0 mi South 3.5 mph - N/A   Mostly Cloudy
7:53 PM 10.9 °F - -0.0 °F 61% 29.87 in 10.0 mi Calm Calm - N/A   Mostly Cloudy
8:53 PM 10.0 °F 1.8 °F -0.0 °F 64% 29.89 in 10.0 mi SSW 4.6 mph - N/A   Mostly Cloudy
9:53 PM 5.0 °F - -2.0 °F 73% 29.91 in 10.0 mi Calm Calm - N/A   Mostly Cloudy
10:53 PM -0.0 °F - -5.1 °F 79% 29.93 in 10.0 mi Calm Calm - N/A   Mostly Cloudy
11:53 PM -9.9 °F -19.2 °F -13.0 °F 86% 29.95 in 10.0 mi NE 3.5 mph - N/A   Scattered Clouds